{"data":{"norad_id":62976,"epoch":"2026-05-25T04:31:40.772640Z","epoch_age_seconds":62211,"freshness":"FRESH","line1":"1 62976U 25030F   26145.18866635 -.00000099  00000+0  53607-4 0  9994","line2":"2 62976  50.0059 318.0992 0001097  93.3528 266.7469 13.29322305 62806","mean_motion":13.29322305,"eccentricity":0.0001097,"inclination_deg":50.0059,"raan_deg":318.0992,"arg_perigee_deg":93.3528,"mean_anomaly_deg":266.7469,"bstar":5.3607e-5,"rev_number":6280,"period_min":108.32587361122,"perigee_km":1148.4947586714,"apogee_km":1150.1462828515,"semimajor_km":7527.4575207614,"source":"CELESTRAK","updated_at":"2026-05-25T13:38:03.396552Z"}}